Retour au catalogue

STARLINK-37281

ActifCommunicationsSSO
NORAD 68773·PAYLOAD·🇺🇸 United States

Lancé Apr 19, 2026 depuis Vandenberg Space Force Base

Loading…

Prochains Passages (prochaines 24 heures)

TLE

FraisSource: CelesTrak SupGP

Époque: Sep 15, 2026, 04:04 UTC

1 68773C 26086H   26258.16993056 -.00045820  00000+0 -14225-2 0  2589
2 68773  97.2840 293.6479 0001021  84.9213  17.5260 15.33460809    15

Suivez STARLINK-37281 en temps réel avec AllMySat

Download on the App Store